Location: Newark
(25.5428°S, 54.5819°W)
Time: 12:47:26
(UTC+00:00)

Starlink (trailer) - Visible Passes

Search period start: 22 July 2019 00:00
Search period end: 01 August 2019 00:00
Orbit: 548 x 551 km, 53.0° (Epoch: 21 July)

Date Brightness Start Highest point End Pass type
(mag) Time Alt. Az. Time Alt. Az. Time Alt. Az.
22 Jul 5.8 22:26:11 10° S 22:26:56 13° SSE 22:26:56 13° SSE visible
23 Jul 5.1 22:20:12 10° S 22:22:42 21° SSE 22:22:42 21° SSE visible
24 Jul 4.4 22:14:25 10° SSW 22:18:10 30° SE 22:18:50 29° ESE visible
24 Jul 6.9 23:54:23 10° WSW 23:54:35 11° WSW 23:54:35 11° WSW visible
25 Jul 3.9 22:08:46 10° SSW 22:12:48 44° SE 22:15:24 19° ENE visible
25 Jul 6.7 23:49:52 10° W 23:51:11 13° WNW 23:51:11 13° WNW visible
26 Jul 3.6 22:03:13 10° SW 22:07:23 67° SE 22:11:32 10° NE visible
27 Jul 3.7 21:57:46 10° SW 22:01:58 80° NW 22:06:07 10° NE visible
28 Jul 4.6 21:52:26 10° SW 21:56:30 51° NW 22:00:32 10° NNE visible
29 Jul 5.6 21:47:14 10° WSW 21:51:01 33° NW 21:54:46 10° N visible
30 Jul 6.5 21:42:15 10° WSW 21:45:30 22° WNW 21:48:45 10° N visible
31 Jul 6.9 21:37:37 10° W 21:39:59 15° WNW 21:42:20 10° NNW visible
